TimeEST,TemperatureF,Dew PointF,Humidity,Sea Level PressureIn,VisibilityMPH,Wind Direction,Wind SpeedMPH,Gust SpeedMPH,PrecipitationIn,Events,Conditions,WindDirDegrees,DateUTC
12:56 AM,25.2,22.1,88,30.35,10.0,ENE,5.8,-,N/A,,Clear,70,2012-11-16 05:56:00
1:56 AM,24.1,22.1,92,30.36,10.0,East,4.6,-,N/A,,Clear,80,2012-11-16 06:56:00
2:56 AM,24.1,21.0,88,30.36,10.0,ENE,4.6,-,N/A,,Clear,70,2012-11-16 07:56:00
3:56 AM,22.1,20.1,92,30.36,10.0,Calm,Calm,-,N/A,,Clear,0,2012-11-16 08:56:00
4:56 AM,23.0,21.0,92,30.38,10.0,Calm,Calm,-,N/A,,Clear,0,2012-11-16 09:56:00
5:56 AM,22.1,21.0,96,30.40,10.0,Calm,Calm,-,N/A,,Clear,0,2012-11-16 10:56:00
6:04 AM,21.2,19.4,93,30.35,10.0,Calm,Calm,-,N/A,,Scattered Clouds,0,2012-11-16 11:04:00
6:28 AM,21.2,19.4,93,30.35,10.0,Calm,Calm,-,N/A,,Partly Cloudy,0,2012-11-16 11:28:00
6:56 AM,22.1,20.1,92,30.41,10.0,Calm,Calm,-,N/A,,Partly Cloudy,0,2012-11-16 11:56:00
7:22 AM,21.2,19.4,93,30.37,10.0,Calm,Calm,-,N/A,,Scattered Clouds,0,2012-11-16 12:22:00
7:56 AM,23.0,22.1,96,30.43,7.0,Calm,Calm,-,N/A,,Scattered Clouds,0,2012-11-16 12:56:00
8:56 AM,30.0,29.1,96,30.43,5.0,NNW,4.6,-,N/A,,Scattered Clouds,330,2012-11-16 13:56:00
9:56 AM,32.9,29.1,86,30.44,10.0,NW,3.5,-,N/A,,Partly Cloudy,310,2012-11-16 14:56:00
10:56 AM,36.0,29.1,76,30.44,10.0,NW,5.8,-,N/A,,Partly Cloudy,310,2012-11-16 15:56:00
11:56 AM,38.8,32.0,76,30.43,10.0,WNW,6.9,-,N/A,,Scattered Clouds,290,2012-11-16 16:56:00
12:56 PM,41.9,27.1,56,30.42,10.0,NW,8.1,-,N/A,,Partly Cloudy,320,2012-11-16 17:56:00
1:56 PM,41.9,31.1,66,30.42,10.0,NW,10.4,-,N/A,,Partly Cloudy,310,2012-11-16 18:56:00
2:56 PM,41.0,31.1,68,30.43,10.0,WNW,10.4,-,N/A,,Clear,290,2012-11-16 19:56:00
3:56 PM,39.9,29.1,65,30.45,10.0,NW,8.1,-,N/A,,Clear,320,2012-11-16 20:56:00
4:56 PM,36.0,28.0,73,30.47,10.0,NNW,3.5,-,N/A,,Clear,330,2012-11-16 21:56:00
5:56 PM,32.0,27.1,82,30.48,10.0,North,3.5,-,N/A,,Clear,360,2012-11-16 22:56:00
6:56 PM,34.0,28.0,79,30.50,10.0,North,5.8,-,N/A,,Clear,10,2012-11-16 23:56:00
7:56 PM,32.9,28.0,82,30.51,10.0,NNE,5.8,-,N/A,,Clear,30,2012-11-17 00:56:00
8:56 PM,32.9,29.1,86,30.53,10.0,NNE,3.5,-,N/A,,Clear,20,2012-11-17 01:56:00
9:56 PM,27.1,25.2,92,30.54,10.0,Calm,Calm,-,N/A,,Clear,0,2012-11-17 02:56:00
10:56 PM,26.1,25.2,96,30.54,5.0,Calm,Calm,-,N/A,,Clear,0,2012-11-17 03:56:00
11:56 PM,24.1,23.0,96,30.54,4.0,Calm,Calm,-,N/A,,Clear,0,2012-11-17 04:56:00